www.pogodaiklimat.ru

Погода и климат >> Архив погоды >> Монголия >> Улиастай


ПОГОДА в Улиастае

  • Прогноз погоды в Улиастае
  • Монитор погоды в Улиастае

АРХИВ ПОГОДЫ в Улиастае

Время (UTC), дата Ветер
(напр.,м/с)
 
Видим.   Явления Облачность Т
(С)
Тd
(С)
f
(%)
Тe
(С)
Тes
(С)
Комфортность P
(гПа)
Po
(гПа)
Тmin
(С)
Tmax
(С)
R
(мм)
R24
(мм)
S
(см)
21 10.06 Ю 2 50 км 6/0
[Ac lent Cs]
+6.6 +1.9 72 +5 +5 1015.3 818.5
00 11.06 Ю 2 50 км 8/0
[Cs]
+9.9 +1.6 56 +9 +11 1013.9 819.4 +6.1
03 11.06 СВ 1 50 км 9/3 1000 м
[Cu med, cong Cs]
+16.6 +1.1 35 +18 +27 1008.6 819.2
06 11.06 СЗ 4 50 км 9/8 1000 м
[Cu med, cong Cc]
+20.0 -1.8 23 +20 +22 1005.9 819.0
09 11.06 З 6 50 км 9/5 600 м
[Cb cap As op]
+19.8 -2.5 22 +19 +20 1006.2 819.1
12 11.06 С 4 50 км 9/3 600 м
[Cb calv Ac cast]
+18.0 -0.3 29 +18 +18 1008.6 820.0 +20.9
15 11.06 СВ 1 50 км 3/0
[Cs]
+12.8 +2.6 50 +13 +13 1014.3 821.5
18 11.06 В 3 50 км 4/0
[Cs]
+10.7 +2.5 57 +9 +9 1017.3 822.6
21 11.06 Ю 2 50 км 8/0
[Ac trans Cc]
+7.7 +2.8 71 +6 +6 1019.0 822.9
00 12.06 В 3 50 км 1/0
[Ci]
+10.7 +2.3 56 +9 +12 1018.4 823.6 +7.5
03 12.06 СЗ 1 50 км 3/1 1000 м
[Cu hum Cs]
+17.3 +1.7 35 +18 +32 опасность
простуды
1012.1 822.5
06 12.06 СЗ 3 50 км 8/3 1000 м
[Cu med, cong Cs]
+20.6 +0.4 26 +21 +30 комфорт 1008.2 821.2
09 12.06 СЗ 2 50 км 9/4 600 м
[Cb calv As trans Cs]
+21.4 -2.5 20 +21 +24 комфорт 1005.7 819.6
12 12.06 В 2 50 км 9/0
[Ac As Cc]
+21.4 -3.2 19 +21 +21 комфорт 1005.0 819.0 +22.7
15 12.06 В 2 н/о 9/0
[Ac lent Cs]
+16.0 +0.2 34 +16 +16 1009.3 819.4
18 12.06 В 1 н/о 9/9 1000 м
[Sc]
+13.2 +1.5 45 +14 +14 1011.5 819.5
21 12.06 В 1 50 км 9/4 1000 м
[Sc Ac As]
+11.0 +2.3 55 +11 +11 1012.6 819.1
00 13.06 В 1 50 км 10/10 1000 м
[Sc]
+12.9 +2.7 50 +13 +13 1011.5 819.3 +10.8
03 13.06 ЮВ 5 50 км в посл. час ливневой дождь 9/6 600 м
[Cb cap Ac trans Cs]
+21.0 +3.7 32 +22 +23 комфорт 1005.2 818.9
06 13.06 ЮЗ 4
{14}
50 км {ливн. осадки} 9/9 600 м
[Cb cap]
+23.4 +2.8 26 +23 +24 комфорт 1001.0 816.9
09 13.06 ЮЗ 6
{12}
50 км {ливн. осадки} 10/10 600 м
[Cb cap]
+22.5 +3.1 28 +22 +22 комфорт 1001.2 816.5
12 13.06 В 2 4000 м слаб. ливневой дождь 10/10 600 м
[Cb cap]
+14.1 +11.1 82 +14 +14 1009.4 818.3 +24.5 1
15 13.06 С 1 н/о дождь {ливн. осадки} 10/0 600 м
[As op]
+12.9 +10.1 83 +13 +13 1009.7 817.8
18 13.06 Ю 4 н/о дождь {ливн. осадки} 10/0 600 м
[As op]
+12.1 +9.6 85 +10 +10 1007.2 815.4
21 13.06 З 2 2000 м слаб. дождь 10/0 600 м
[As op]
+11.9 +1.0 47 +11 +11 1003.8 812.5
00 14.06 В 1 2000 м дождь 10/10 600 м
[Frnb Ns]
+11.7 +10.9 95 +11 +11 1003.6 812.1 +11.5 9
03 14.06 ЮЗ 4 2000 м осадки на расстоянии {ливн. осадки} туман 9/9 600 м
[Cb cap]
+12.7 +8.9 78 +11 +12 1004.4 813.4
06 14.06 ЮЗ 5
{12}
10 км слаб. ливневой дождь 9/9 600 м
[Cb cap]
+14.1 +7.4 64 +12 +13 1003.6 813.6
09 14.06 ЮЗ 5 50 км {ливн. осадки} 8/8 600 м
[Cb cap Ac trans]
+17.5 +6.4 48 +17 +18 999.9 812.6
12 14.06 З 2 50 км 9/9 1000 м
[Cb calv]
+15.0 +7.0 59 +15 +15 1002.3 813.1 +17.6 3
15 14.06 Ю 1 н/о 8/8 600 м
[Cb calv]
+11.5 +6.6 72 +11 +11 1005.7 813.8
18 14.06 штиль 0 н/о 8/0
[Ac As Cs]
+9.7 +6.9 83 +9 +9 1007.3 814.0
21 14.06 З 6 н/о 10/10 600 м
[Cb cap]
+8.6 +6.7 88 +5 +5 1007.7 813.6
00 15.06 З 4 10 км осадки на расстоянии 10/10 600 м
[Cb cap]
+8.7 +6.6 87 +6 +6 1007.9 813.9 +8.2
03 15.06 З 4 10 км в посл. час ливневой дождь 10/10 600 м
[Cb cap]
+10.7 +6.8 77 +8 +8 1006.6 814.0
06 15.06 З 8 4000 м осадки на расстоянии {ливн. осадки} 10/10 600 м
[Cb cap]
+13.7 +7.7 67 +11 +11 1002.8 812.8
09 15.06 50 км в посл. час ливневой дождь н/о +14.6 +6.9 60 +14 +15 1001.7 812.4
12 15.06 ЮВ 6 50 км в посл. час гроза {ливн. осадки} 9/8 600 м
[Cb cap Ac lent Ci]
+12.2 +7.1 71 +10 +10 1004.4 813.1 +16.6 0.8
15 15.06 З 2 н/о в посл. час ливневой дождь 9/9 600 м
[Cb cap]
+11.9 +8.6 80 +11 +11 1005.3 813.6
18 15.06 З 4 н/о слаб. ливневой дождь 10/10 600 м
[Cb cap]
+11.8 +8.5 80 +10 +10 1005.0 813.3
21 15.06 СВ 1 н/о {ливн. осадки} 9/9 600 м
[Cb cap]
+11.1 +8.7 85 +11 +11 1005.3 813.2
00 16.06 ЮВ 1 2000 м {ливн. осадки} 9/9 600 м
[Cb cap]
+12.1 +8.0 76 +12 +13 1005.4 813.9 +10.9 0.0
03 16.06 З 3 50 км 9/9 600 м
[Cb cap]
+14.5 +6.8 60 +14 +15 1004.5 814.6
06 16.06 З 2 50 км 8/6 600 м
[Cb cap Ac lent Ci ing]
+18.1 +8.1 52 +19 +24 1001.0 814.0
09 16.06 С 5 50 км 8/8 600 м
[Cb cap Ci ing]
+21.0 +6.9 40 +22 +23 комфорт 997.7 812.9
12 16.06 С 5 50 км {ливн. осадки} 9/8 600 м
[Cb cap Cs]
+18.8 +6.3 44 +19 +19 1000.2 813.6 +21.4 0.0
15 16.06 ЮВ 1 н/о 6/0
[Ac trans Cc]
+14.5 +6.3 58 +15 +15 1005.4 815.3
18 16.06 ЮВ 2 50 км 1/0
[Ac lent]
+10.7 +6.6 76 +9 +9 1003.7 815.8
21 16.06 В 3 н/о 9/0
[Cc]
+8.6 +5.7 82 +6 +6 1011.1 816.3
00 17.06 В 3 10 км мгла 9/0
[Cc]
+12.0 +5.6 65 +11 +13 1008.6 816.4 +7.7
03 17.06 СВ 1 50 км 4/3 1000 м
[Cb calv Cs]
+18.6 +8.0 50 +20 +31 1003.6 816.3
06 17.06 СЗ 5 50 км 8/5 1000 м
[Cb cap Ci ing]
+22.9 +4.4 30 +23 +27 комфорт 999.3 815.3
09 17.06 З 8 50 км 9/9 1000 м
[Cb cap]
+20.6 +2.9 31 +21 +21 комфорт 1001.2 815.5
12 17.06 В 3 20 км слаб. ливневой дождь 9/9 600 м
[Cb cap]
+16.9 +7.5 54 +17 +17 1006.6 817.8 +23.5 0.0
15 17.06 ЮВ 2 50 км ясно +11.7 +8.2 79 +11 +11 1011.9 818.9
18 17.06 В 3 50 км ясно +10.3 +5.9 74 +8 +8 1013.7 819.5

 

Местоположение метеостанции Улиастай (Монголия): широта 47.75 долгота 96.85 высота над уровнем моря 1759 м.

В архиве по умолчанию представлена погода в Улиастае за последнюю неделю. Архивные данные за месяц целиком и за предыдущие месяцы, начиная с января 2011 года, Вы можете получить, выбрав интересующий диапазон дат из раскрывающегося списка и нажав кнопку "Ввод!".


*Определитесь, кто Вы:
робот инопланетянин человек

Внимание! Время в таблицах - всемирное. Для получения местного времени необходимо прибавить поправку, которая равна 8 ч.

Смотрите также архив погоды в соседних городах и на ближайших метеорологических станциях:

Погода в Цэцэн-Ууле (Монголия) (130 км)
Погода в Баянбулаге (Монголия) (138 км)
Погода в Тосонцэнгэле (Монголия) (148 км)
Погода в Алтае (Монголия) (157 км)
Погода в Тариате (Монголия) (205 км)
Погода в Ургамале (Монголия) (208 км)
Погода в Тэсе (Монголия) (225 км)
Погода в Галууте (Монголия) (274 км)
Погода в Тонхиле (Монголия) (274 км)
Погода в Баруунтурууне (Монголия) (277 км)

Пояснения к столбцам:

Ветер - указаны скорость ветра в м/с - средняя за 10 мин, порывы в срок и между сроками (в фигурных скобках) и направление, откуда дует ветер: С - северный, СВ - северо-восточный, В - восточный, ЮВ - юго-восточный, Ю - южный, ЮЗ - юго-западный, З - западный, СЗ - северо-западный.
Видимость - горизонтальная дальность видимости в метрах или километрах. При видимости от 1 до 10 км при отсутствии осадков обычно наблюдается дымка, при ухудшении видимости до 1 км и менее - туман. В сухую погоду видимость может ухудшаться дымом, пылью или мглою.
Явления - указаны атмосферные явления, наблюдавшиеся в срок или в последний час перед сроком; фигурными скобками обозначены явления, наблюдавшиеся между сроками (за 1-3 часа до срока); квадратными скобками обозначены град или гололедные отложения с указанием их диаметра в мм.
Облачность - указаны через наклонную черту общая и нижняя облачность в баллах и высота нижней границы облаков в метрах; квадратными скобками обозначены формы облаков: Ci - перистые, Cs - перисто-слоистые, Cc - перисто-кучевые, Ac - высококучевые, As - высокослоистые, Sc - слоисто-кучевые, Ns - слоисто-дождевые, Cu - кучевые, Cb - кучево-дождевые. Подробнее классификацию облаков см. в Атласе облаков (PDF).
T - Температура воздуха - температура, измеренная на высоте 2 м над землей.
Td - Температура точки росы - температура, при понижении до которой содержащийся в воздухе водяной пар достигнет насыщения.
f - Относительная влажность воздуха - влажноcть воздуха, измеренная на высоте 2 м над землей.
Te - Эффективная температура - температура, которую ощущает одетый по сезону человек в тени. Характеристика душности погоды. При расчете учитывается влияние влажности воздуха и скорости ветра на теплоощущения человека.
Tes - Эффективная температура на солнце - температура, которую ощущает человек, с поправкой на солнечный нагрев. Характеристика знойности погоды. Зависит от высоты солнца над горизонтом, облачности и скорости ветра. Ночью, в пасмурную погоду, а также при ветре 12 м/с и более поправка равна нулю.
P - Атмосферное давление - приведенное к уровню моря атмосферное давление.
Po - Атмосферное давление - измеренное на уровне метеостанции атмосферное давление.
Tmin - Минимальная температура - минимум температуры воздуха на высоте 2 м над землей.
Tmax - Максимальная температура - максимум температуры воздуха на высоте 2 м над землей.
R - Количество осадков - Количество выпавших осадков за период времени, мм. При наведении курсора мыши на число - период времени, за который выпало указанное количество осадков.
R24 - Количество осадков - Количество выпавших осадков за 24 часа, мм.
S - Снежный покров - Высота снежного покрова, см. При наведении курсора мыши на число - состояние снежного покрова и степень покрытия местности в баллах.